Location: Newark
(48.8656°N, 2.3211°E)
Time: 15:24:55
(UTC+00:00)

Envisat - Pass Details

Date: 11 December 2019
Orbit: 764 x 766 km, 98.1° (Epoch: 18 January)

Event Time Altitude Azimuth Distance (km) Brightness Sun altitude
Rises 18:39:31 0° 197° (SSW) 3,221 6.5 -26.1°
Reaches altitude 10° 18:42:08 10° 209° (SSW) 2,300 5.9 -26.5°
Maximum altitude 18:46:25 27° 267° (W) 1,440 5.0 -27.2°
Drops below altitude 10° 18:50:44 10° 325° (NW) 2,315 5.8 -27.9°
Sets 18:53:24 0° 337° (NNW) 3,246 6.5 -28.4°
